Weather History for KMWT - May, 2013

Change the Weather History Date:

Tuesday, May 21, 2013

  Actual Average (KHOT) Record (KHOT)
Temperature  
Mean Temperature 62 °F -  
Max Temperature 64 °F 83 °F 93 °F (1988)
Min Temperature 60 °F 59 °F 46 °F (1981)
Degree Days  
Heating Degree Days 3    
Growing Degree Days 12 (Base 50)    
Moisture  
Dew Point 62 °F    
Average Humidity 95    
Maximum Humidity 100    
Minimum Humidity 87    
Precipitation  
Precipitation 2.36 in - - ()
Sea Level Pressure  
Sea Level Pressure 29.86 in    
Wind  
Wind Speed 2 mph (WSW)    
Max Wind Speed 10 mph    
Max Gust Speed 26 mph    
Visibility 6 miles    
Events Fog , Rain    
Averages and records for this station are not official NWS values.
T = Trace of Precipitation, MM = Missing Value Source: NWS Daily Summary

Daily Weather History Graph

Daily Weather History Graph

Search for Another Location

Airport or City:

Trip Planner

Search our weather history database for the weather conditions in past years. The results will help you decide how hot, cold, wet, or windy it might be!

Date:

Astronomy

May. 21, 2013 Rise Set
Actual Time 6:07 AM CDT 8:14 PM CDT
Civil Twilight 5:39 AM CDT 8:43 PM CDT
Nautical Twilight 5:04 AM CDT 9:17 PM CDT
Astronomical Twilight 4:27 AM CDT 9:55 PM CDT
Moon 4:37 PM CDT (5/21) 3:26 AM CDT (5/21)
Length of Visible Light 15h 03m
Length of Day
14h 07m
Waxing Gibbous, 84% of the Moon is Illuminated
May 21
Waxing Gibbous
May 24
Full
May 31
Last Quarter
Jun 8
New
Jun 16
First Quarter

Hourly Weather History & Observations

Time (CDT) Temp. Dew Point Humidity Pressure Visibility Wind Dir Wind Speed Gust Speed Precip Events Conditions
12:53 AM 64.0 °F 63.0 °F 96% 29.83 in 10.0 mi Calm Calm - 0.01 in   Mostly Cloudy
1:48 AM 64.4 °F 62.6 °F 94% 29.86 in 7.0 mi Calm Calm - N/A   Mostly Cloudy
1:53 AM 64.0 °F 63.0 °F 96% 29.83 in 6.0 mi Calm Calm - N/A   Mostly Cloudy
2:53 AM 64.0 °F 64.0 °F 100% 29.81 in 9.0 mi SE 3.5 mph - N/A   Mostly Cloudy
3:14 AM 64.4 °F 64.4 °F 100% 29.84 in 10.0 mi Calm Calm - N/A   Overcast
3:21 AM 64.4 °F 62.6 °F 94% 29.84 in 10.0 mi SE 3.5 mph - N/A   Overcast
3:53 AM 64.9 °F 64.0 °F 97% 29.81 in 10.0 mi Calm Calm - N/A   Overcast
4:25 AM 64.4 °F 62.6 °F 94% 29.91 in 10.0 mi NW 9.2 mph 21.9 mph N/A   Overcast
4:42 AM 62.6 °F 60.8 °F 94% 29.90 in 1.5 mi Variable 6.9 mph - 0.03 in Rain Heavy Rain
4:56 AM 62.6 °F 60.8 °F 94% 29.89 in 3.0 mi South 3.5 mph - 0.01 in Rain Light Rain
5:28 AM 62.6 °F 60.8 °F 94% 29.87 in 2.0 mi Calm Calm - 0.06 in Rain Rain
5:36 AM 62.6 °F 60.8 °F 94% 29.86 in 3.0 mi SE 4.6 mph - 0.09 in Rain Heavy Rain
5:53 AM 61.0 °F 61.0 °F 100% 29.84 in 10.0 mi Calm Calm - 0.15 in Rain Light Rain
6:20 AM 62.6 °F 60.8 °F 94% 29.87 in 2.0 mi Calm Calm - 0.06 in Rain Light Rain
6:28 AM 62.6 °F 60.8 °F 94% 29.87 in 9.0 mi Calm Calm - 0.06 in Rain Light Rain
6:53 AM 62.1 °F 61.0 °F 96% 29.84 in 6.0 mi Calm Calm - 0.06 in   Overcast
7:53 AM 64.0 °F 62.1 °F 93% 29.83 in 10.0 mi Calm Calm - N/A   Mostly Cloudy
8:08 AM 64.4 °F 62.6 °F 94% 29.86 in 10.0 mi Calm Calm - N/A   Overcast
8:53 AM 64.9 °F 63.0 °F 93% 29.83 in 10.0 mi Calm Calm - N/A   Overcast
9:00 AM 64.4 °F 62.6 °F 94% 29.86 in 10.0 mi Calm Calm - N/A   Overcast
9:28 AM 64.4 °F 62.6 °F 94% 29.87 in 10.0 mi Calm Calm - N/A   Overcast
9:53 AM 64.0 °F 62.1 °F 93% 29.85 in 10.0 mi Calm Calm - N/A   Overcast
10:24 AM 64.4 °F 62.6 °F 94% 29.86 in 10.0 mi Calm Calm - N/A   Overcast
10:53 AM 64.9 °F 63.0 °F 93% 29.89 in 10.0 mi NNW 9.2 mph 19.6 mph 0.00 in Rain Light Rain
11:02 AM 64.4 °F 62.6 °F 94% 29.93 in 1.5 mi NW 8.1 mph 23.0 mph 0.02 in Rain Heavy Rain
11:13 AM 62.6 °F 60.8 °F 94% 29.96 in 0.5 mi Variable 5.8 mph 18.4 mph 0.17 in Fog , Rain Heavy Rain
11:44 AM 62.6 °F 60.8 °F 94% 29.93 in 1.0 mi SSE 5.8 mph - 0.80 in Rain Heavy Rain
11:53 AM 62.1 °F 61.0 °F 96% 29.91 in 2.0 mi Calm Calm - 0.87 in Rain Rain
12:16 PM 62.6 °F 60.8 °F 94% 29.91 in 6.0 mi Calm Calm - 0.09 in Rain Light Rain
12:53 PM 63.0 °F 62.1 °F 97% 29.90 in 10.0 mi Calm Calm - 0.16 in Rain Light Rain
1:53 PM 63.0 °F 62.1 °F 97% 29.90 in 10.0 mi Calm Calm - 0.02 in Rain Light Rain
2:53 PM 62.1 °F 61.0 °F 96% 29.82 in 7.0 mi Calm Calm - 0.03 in Rain Light Rain
3:53 PM 64.9 °F 61.0 °F 87% 29.77 in 10.0 mi Calm Calm - 0.03 in   Mostly Cloudy
4:53 PM 64.0 °F 63.0 °F 96% 29.81 in 10.0 mi Calm Calm - 0.02 in   Mostly Cloudy
5:19 PM 64.4 °F 60.8 °F 88% 29.92 in 1.8 mi NW 9.2 mph 20.7 mph 0.04 in Rain Heavy Rain
5:30 PM 62.6 °F 60.8 °F 94% 29.90 in 0.8 mi NNW 8.1 mph 19.6 mph 0.29 in Rain Heavy Rain
5:36 PM 62.6 °F 60.8 °F 94% 29.89 in 2.0 mi NNW 5.8 mph 18.4 mph 0.31 in Rain Rain
5:45 PM 62.6 °F 60.8 °F 94% 29.87 in 5.0 mi Calm Calm - 0.33 in Rain Light Rain
5:53 PM 62.1 °F 60.1 °F 93% 29.86 in 3.0 mi Calm Calm - 0.35 in Rain Rain
6:02 PM 62.6 °F 60.8 °F 94% 29.85 in 2.0 mi Calm Calm - 0.02 in Rain Rain
6:19 PM 60.8 °F 60.8 °F 100% 29.86 in 4.0 mi WSW 3.5 mph - 0.05 in Rain Rain
6:42 PM 60.8 °F 60.8 °F 100% 29.87 in 2.0 mi Variable 3.5 mph - 0.10 in Rain Rain
6:53 PM 61.0 °F 61.0 °F 100% 29.87 in 1.8 mi Calm Calm - 0.14 in Rain Rain
7:18 PM 60.8 °F 60.8 °F 100% 29.87 in 3.0 mi Calm Calm - 0.11 in Rain Rain
7:53 PM 61.0 °F 61.0 °F 100% 29.83 in 4.0 mi SE 6.9 mph - 0.25 in Rain Heavy Rain
8:17 PM 60.8 °F 60.8 °F 100% 29.83 in 4.0 mi Variable 6.9 mph - 0.13 in Rain Heavy Rain
8:53 PM 61.0 °F 60.1 °F 97% 29.75 in 7.0 mi ESE 10.4 mph - 0.25 in Rain Light Rain
9:53 PM 63.0 °F 60.1 °F 90% 29.68 in 10.0 mi WNW 8.1 mph 26.5 mph 0.02 in   Partly Cloudy
10:53 PM 61.0 °F 60.1 °F 97% 29.77 in 10.0 mi Calm Calm - N/A   Clear
11:53 PM 62.1 °F 60.1 °F 93% 29.81 in 7.0 mi Calm Calm - 0.00 in Rain Light Rain